• In Hungary
  • List of Countries
  • For 7 days
  • Water Temperature
  • Satellite Maps
  • Weather Map
  • News
  • Weather Widgets
  • user-avatar
    Login

    Hourly Weather Wesseling

    Today, 16 October, Tuesday

    Time Temperature Precipitation Wind Pressure Humidity
    00:00 +16°C° 0 mm 0 mps 758 mmHg 74%
    01:00 +16°C° 0 mm 0 mps 758 mmHg 75%
    02:00 +15°C° 0 mm 0 mps 758 mmHg 76%
    03:00 +15°C° 0 mm 0 mps 758 mmHg 76%
    04:00 +15°C° 0 mm 0 mps 758 mmHg 77%
    05:00 +15°C° 0 mm 0 mps 759 mmHg 77%
    06:00 +15°C° 0 mm 0 mps 759 mmHg 77%
    07:00 +17°C° 0 mm 0 mps 759 mmHg 71%
    08:00 +19°C° 0 mm 0 mps 759 mmHg 65%
    09:00 +20°C° 0 mm 0 mps 759 mmHg 59%
    10:00 +24°C° 0 mm 1 mps 759 mmHg 55%
    11:00 +25°C° 0 mm 1 mps 759 mmHg 51%
    12:00 +26°C° 0 mm 1 mps 759 mmHg 46%
    13:00 +26°C° 0 mm 1 mps 759 mmHg 49%
    14:00 +26°C° 0 mm 1 mps 759 mmHg 51%
    15:00 +25°C° 0 mm 1 mps 759 mmHg 53%
    16:00 +24°C° 0 mm 1 mps 759 mmHg 58%
    17:00 +22°C° 0 mm 1 mps 759 mmHg 63%
    18:00 +20°C° 0 mm 1 mps 760 mmHg 68%
    19:00 +20°C° 0 mm 1 mps 760 mmHg 70%
    20:00 +19°C° 0 mm 1 mps 760 mmHg 73%
    21:00 +19°C° 0 mm 1 mps 760 mmHg 75%
    22:00 +18°C° 0 mm 1 mps 760 mmHg 76%
    23:00 +18°C° 0 mm 1 mps 760 mmHg 77%

    Tomorrow, 17 October, Wednesday

    Time Temperature Precipitation Wind Pressure Humidity
    00:00 +16°C° 0 mm 1 mps 760 mmHg 79%
    01:00 +16°C° 0 mm 1 mps 760 mmHg 79%
    02:00 +16°C° 0 mm 1 mps 760 mmHg 80%
    03:00 +16°C° 0 mm 1 mps 759 mmHg 80%
    04:00 +15°C° 0 mm 1 mps 759 mmHg 81%
    05:00 +15°C° 0 mm 1 mps 759 mmHg 81%
    06:00 +15°C° 0 mm 1 mps 759 mmHg 81%
    07:00 +18°C° 0 mm 1 mps 760 mmHg 75%
    08:00 +19°C° 0 mm 1 mps 760 mmHg 69%
    09:00 +19°C° 0 mm 0 mps 760 mmHg 63%
    10:00 +22°C° 0 mm 1 mps 760 mmHg 59%
    11:00 +23°C° 0 mm 1 mps 759 mmHg 55%
    12:00 +25°C° 0 mm 1 mps 759 mmHg 51%
    13:00 +24°C° 0 mm 1 mps 759 mmHg 53%
    14:00 +24°C° 0 mm 1 mps 759 mmHg 55%
    15:00 +24°C° 0 mm 1 mps 758 mmHg 57%
    16:00 +23°C° 0 mm 1 mps 759 mmHg 62%
    17:00 +21°C° 0 mm 1 mps 759 mmHg 67%
    18:00 +19°C° 0 mm 1 mps 759 mmHg 72%
    19:00 +19°C° 0 mm 1 mps 759 mmHg 75%
    20:00 +18°C° 0 mm 1 mps 759 mmHg 77%
    21:00 +18°C° 0 mm 1 mps 760 mmHg 80%
    22:00 +18°C° 0 mm 1 mps 760 mmHg 82%
    23:00 +16°C° 0 mm 1 mps 760 mmHg 83%

    Day after tomorrow, 18 October, Thursday

    Time Temperature Precipitation Wind Pressure Humidity
    00:00 +16°C° 0 mm 1 mps 759 mmHg 85%
    01:00 +16°C° 0 mm 1 mps 760 mmHg 86%
    02:00 +15°C° 0 mm 1 mps 760 mmHg 87%
    03:00 +15°C° 0 mm 1 mps 760 mmHg 88%
    04:00 +15°C° 0 mm 1 mps 760 mmHg 89%
    05:00 +15°C° 0 mm 1 mps 760 mmHg 90%
    06:00 +14°C° 0 mm 1 mps 760 mmHg 91%
    07:00 +16°C° 0 mm 1 mps 760 mmHg 85%
    08:00 +17°C° 0 mm 2 mps 761 mmHg 79%
    09:00 +19°C° 0 mm 2 mps 761 mmHg 73%
    10:00 +20°C° 0 mm 2 mps 761 mmHg 68%
    11:00 +21°C° 0 mm 2 mps 761 mmHg 63%
    12:00 +22°C° 0 mm 3 mps 761 mmHg 58%
    13:00 +22°C° 0 mm 3 mps 761 mmHg 60%
    14:00 +21°C° 0 mm 3 mps 761 mmHg 62%
    15:00 +21°C° 0 mm 3 mps 760 mmHg 63%
    16:00 +20°C° 0 mm 3 mps 761 mmHg 70%
    17:00 +18°C° 0 mm 3 mps 761 mmHg 77%
    18:00 +17°C° 0 mm 3 mps 761 mmHg 84%
    19:00 +16°C° 0 mm 2 mps 762 mmHg 86%
    20:00 +16°C° 0 mm 2 mps 762 mmHg 88%
    21:00 +15°C° 0 mm 2 mps 763 mmHg 90%
    22:00 +15°C° 0 mm 2 mps 763 mmHg 91%
    23:00 +14°C° 0 mm 2 mps 763 mmHg 92%

    19 October, Friday

    Time Temperature Precipitation Wind Pressure Humidity
    00:00 +14°C° 0 mm 1 mps 763 mmHg 92%
    01:00 +14°C° 0 mm 1 mps 763 mmHg 93%
    02:00 +14°C° 0 mm 1 mps 763 mmHg 93%
    03:00 +13°C° 0 mm 1 mps 763 mmHg 93%
    04:00 +13°C° 0 mm 1 mps 763 mmHg 93%
    05:00 +13°C° 0 mm 1 mps 763 mmHg 93%
    06:00 +13°C° 0 mm 1 mps 764 mmHg 93%
    07:00 +14°C° 0 mm 1 mps 764 mmHg 88%
    08:00 +15°C° 0 mm 1 mps 764 mmHg 82%
    09:00 +18°C° 0 mm 1 mps 764 mmHg 77%
    10:00 +19°C° 0 mm 1 mps 764 mmHg 73%
    11:00 +20°C° 0 mm 1 mps 764 mmHg 69%
    12:00 +19°C° 0 mm 2 mps 764 mmHg 65%
    13:00 +19°C° 0 mm 2 mps 764 mmHg 66%
    14:00 +19°C° 0 mm 2 mps 764 mmHg 66%
    15:00 +19°C° 0 mm 2 mps 764 mmHg 67%
    16:00 +18°C° 0 mm 2 mps 764 mmHg 71%
    17:00 +16°C° 0 mm 2 mps 765 mmHg 75%
    18:00 +15°C° 0 mm 2 mps 765 mmHg 79%
    19:00 +14°C° 0 mm 2 mps 765 mmHg 80%
    20:00 +14°C° 0 mm 2 mps 766 mmHg 81%
    21:00 +13°C° 0 mm 2 mps 766 mmHg 82%
    22:00 +12°C° 0 mm 1 mps 766 mmHg 83%
    23:00 +12°C° 0 mm 1 mps 766 mmHg 83%

    20 October, Saturday

    Time Temperature Precipitation Wind Pressure Humidity
    00:00 +11°C° 0 mm 1 mps 767 mmHg 84%
    01:00 +11°C° 0 mm 1 mps 767 mmHg 84%
    02:00 +11°C° 0 mm 1 mps 767 mmHg 85%
    03:00 +10°C° 0 mm 1 mps 767 mmHg 85%
    04:00 +10°C° 0 mm 1 mps 767 mmHg 85%
    05:00 +10°C° 0 mm 1 mps 768 mmHg 85%
    06:00 +9°C° 0 mm 1 mps 768 mmHg 85%
    07:00 +11°C° 0 mm 1 mps 768 mmHg 77%
    08:00 +12°C° 0 mm 1 mps 768 mmHg 70%
    09:00 +14°C° 0 mm 1 mps 768 mmHg 63%
    10:00 +15°C° 0 mm 1 mps 768 mmHg 57%
    11:00 +16°C° 0 mm 1 mps 768 mmHg 50%
    12:00 +19°C° 0 mm 1 mps 768 mmHg 44%
    13:00 +18°C° 0 mm 1 mps 768 mmHg 45%
    14:00 +18°C° 0 mm 1 mps 768 mmHg 46%
    15:00 +18°C° 0 mm 1 mps 768 mmHg 47%
    16:00 +15°C° 0 mm 1 mps 768 mmHg 51%
    17:00 +13°C° 0 mm 1 mps 768 mmHg 55%
    18:00 +11°C° 0 mm 1 mps 768 mmHg 58%
    19:00 +11°C° 0 mm 1 mps 769 mmHg 60%
    20:00 +10°C° 0 mm 0 mps 769 mmHg 61%
    21:00 +9°C° 0 mm 0 mps 769 mmHg 63%
    22:00 +9°C° 0 mm 0 mps 769 mmHg 63%
    23:00 +9°C° 0 mm 0 mps 769 mmHg 64%

    21 October, Sunday

    Time Temperature Precipitation Wind Pressure Humidity
    00:00 +8°C° 0 mm 0 mps 769 mmHg 64%
    01:00 +8°C° 0 mm 0 mps 769 mmHg 65%
    02:00 +8°C° 0 mm 0 mps 769 mmHg 65%
    03:00 +8°C° 0 mm 0 mps 768 mmHg 65%
    04:00 +8°C° 0 mm 0 mps 768 mmHg 65%
    05:00 +8°C° 0 mm 0 mps 768 mmHg 65%
    06:00 +7°C° 0 mm 0 mps 768 mmHg 65%
    07:00 +9°C° 0 mm 0 mps 768 mmHg 60%
    08:00 +11°C° 0 mm 0 mps 768 mmHg 54%
    09:00 +14°C° 0 mm 0 mps 768 mmHg 48%
    10:00 +15°C° 0 mm 0 mps 768 mmHg 44%
    11:00 +16°C° 0 mm 0 mps 767 mmHg 40%
    12:00 +18°C° 0 mm 0 mps 767 mmHg 36%
    13:00 +18°C° 0 mm 0 mps 767 mmHg 39%
    14:00 +17°C° 0 mm 0 mps 766 mmHg 42%
    15:00 +17°C° 0 mm 0 mps 766 mmHg 44%
    16:00 +15°C° 0 mm 0 mps 766 mmHg 47%
    17:00 +14°C° 0 mm 0 mps 766 mmHg 50%
    18:00 +12°C° 0 mm 0 mps 766 mmHg 54%
    19:00 +11°C° 0 mm 0 mps 766 mmHg 55%
    20:00 +11°C° 0 mm 0 mps 766 mmHg 56%
    21:00 +11°C° 0 mm 0 mps 766 mmHg 57%
    22:00 +10°C° 0 mm 0 mps 766 mmHg 58%
    23:00 +10°C° 0 mm 0 mps 766 mmHg 58%
    Show more